Location: Unspecified
(43.8044°N, 11.0278°E)
Time: 20:20:03
(UTC+02:00)

Cosmos 2058 - Visible Passes

Search period start: 23 September 2014 00:00
Search period end: 03 October 2014 00:00
Orbit: 570 x 594 km, 82.5° (Epoch: 22 September)

Date Brightness Start Highest point End Pass type
(mag) Time Alt. Az. Time Alt. Az. Time Alt. Az.
23 Sep 4.2 19:58:32 10° NNE 20:01:46 21° ENE 20:04:22 13° ESE visible
23 Sep 4.6 21:35:12 10° NNW 21:38:55 32° W 21:40:47 22° SW visible
24 Sep 3.8 20:03:56 10° NNE 20:07:36 29° ENE 20:10:45 13° SE visible
24 Sep 5.2 21:41:14 10° NW 21:44:33 23° W 21:47:11 13° SW visible
25 Sep 3.4 20:09:26 10° N 20:13:24 40° ENE 20:17:17 11° SSE visible
25 Sep 5.7 21:47:28 10° NW 21:50:09 17° W 21:52:51 10° SW visible
26 Sep 3.0 20:15:02 10° N 20:19:10 57° E 20:23:19 10° SSE visible
26 Sep 6.0 21:54:06 10° WNW 21:55:44 12° W 21:57:22 10° WSW visible
27 Sep 2.8 20:20:42 10° N 20:24:55 82° E 20:29:07 10° S visible
28 Sep 3.2 20:26:26 10° NNW 20:30:37 70° W 20:34:48 10° S visible
29 Sep 3.9 20:32:14 10° NNW 20:36:18 48° W 20:40:21 10° SSW visible
30 Sep 4.7 20:38:08 10° NNW 20:41:57 34° W 20:45:46 10° SSW visible
01 Oct 5.3 20:44:07 10° NW 20:47:34 25° W 20:51:01 10° SW visible
02 Oct 5.8 20:50:16 10° NW 20:53:09 18° W 20:56:02 10° SW visible
